Location: Sternwarte_Laufen
(47.9344°N, 12.9346°E)
Time: 09:17:38
(UTC+02:00)

ISS - Pass Details

Date: 26 May 2017
Orbit: 401 x 408 km, 51.6° (Epoch: 28 June)

Event Time Altitude Azimuth Distance (km) Brightness Sun altitude
Rises 21:39:50 0° 227° (SW) 2,330 0.1 -6.9°
Reaches altitude 10° 21:41:58 10° 220° (SW) 1,471 -1.0 -7.2°
Maximum altitude 21:45:07 44° 148° (SSE) 582 -3.5 -7.6°
Drops below altitude 10° 21:48:18 10° 75° (ENE) 1,476 -1.3 -7.9°
Sets 21:50:26 0° 68° (ENE) 2,339 -0.2 -8.2°
